When you browse on this site, cookies collect data to enhance your experience and personalize the content and advertising you see.
Visit our Privacy Policy to learn more. By continuing to use the site, you agree to this use of cookies and data.
  • în România
  • Lista ţărilor
  • Pe 7 zile
  • Temperatura apei
  • Hartă satelitară
  • Meteo pe hartă
  • Widget-uri
  • user-avatar
    Intrare

    Meteo pe oră la Mauritius

    Astăzi, 27 Martie, Miercuri

    Timp Temperatura Precipitaţii Vânt Presiune Umiditate
    00:00 +26°C° 0 mm 2 m/s 721 mmHg 85%
    01:00 +26°C° 0 mm 2 m/s 721 mmHg 85%
    02:00 +26°C° 0 mm 2 m/s 721 mmHg 85%
    03:00 +26°C° 0 mm 2 m/s 721 mmHg 85%
    04:00 +26°C° 0 mm 3 m/s 721 mmHg 86%
    05:00 +26°C° 0 mm 3 m/s 721 mmHg 85%
    06:00 +26°C° 0 mm 3 m/s 721 mmHg 85%
    07:00 +26°C° 0 mm 3 m/s 721 mmHg 85%
    08:00 +27°C° 0 mm 4 m/s 721 mmHg 81%
    09:00 +28°C° 0 mm 4 m/s 722 mmHg 77%
    10:00 +29°C° 0 mm 4 m/s 722 mmHg 72%
    11:00 +29°C° 0 mm 4 m/s 722 mmHg 70%
    12:00 +30°C° 0 mm 4 m/s 722 mmHg 68%
    13:00 +30°C° 0 mm 4 m/s 721 mmHg 66%
    14:00 +30°C° 0.1 mm 5 m/s 721 mmHg 67%
    15:00 +30°C° 0.1 mm 5 m/s 721 mmHg 69%
    16:00 +29°C° 0.1 mm 5 m/s 721 mmHg 70%
    17:00 +28°C° 0 mm 5 m/s 721 mmHg 74%
    18:00 +28°C° 0 mm 5 m/s 721 mmHg 78%
    19:00 +27°C° 0 mm 5 m/s 721 mmHg 82%
    20:00 +27°C° 0 mm 5 m/s 721 mmHg 83%
    21:00 +27°C° 0 mm 5 m/s 722 mmHg 83%
    22:00 +27°C° 0 mm 5 m/s 722 mmHg 84%
    23:00 +27°C° 0 mm 5 m/s 722 mmHg 84%

    Mâine, 28 Martie, Joi

    Timp Temperatura Precipitaţii Vânt Presiune Umiditate
    00:00 +27°C° 0 mm 5 m/s 721 mmHg 84%
    01:00 +26°C° 0 mm 4 m/s 721 mmHg 85%
    02:00 +26°C° 0 mm 4 m/s 721 mmHg 85%
    03:00 +26°C° 0 mm 5 m/s 721 mmHg 86%
    04:00 +26°C° 0 mm 5 m/s 720 mmHg 86%
    05:00 +26°C° 0 mm 5 m/s 720 mmHg 86%
    06:00 +26°C° 0 mm 5 m/s 720 mmHg 85%
    07:00 +26°C° 0 mm 5 m/s 721 mmHg 85%
    08:00 +27°C° 0.1 mm 5 m/s 721 mmHg 81%
    09:00 +28°C° 0.1 mm 5 m/s 721 mmHg 77%
    10:00 +29°C° 0.1 mm 6 m/s 722 mmHg 73%
    11:00 +29°C° 0.2 mm 6 m/s 721 mmHg 72%
    12:00 +30°C° 0.2 mm 6 m/s 721 mmHg 70%
    13:00 +30°C° 0.2 mm 6 m/s 721 mmHg 69%
    14:00 +30°C° 0.1 mm 6 m/s 720 mmHg 70%
    15:00 +29°C° 0.1 mm 6 m/s 720 mmHg 71%
    16:00 +29°C° 0.1 mm 6 m/s 719 mmHg 72%
    17:00 +28°C° 0.1 mm 6 m/s 719 mmHg 75%
    18:00 +28°C° 0.1 mm 6 m/s 719 mmHg 78%
    19:00 +27°C° 0.1 mm 6 m/s 719 mmHg 81%
    20:00 +27°C° 0.1 mm 6 m/s 720 mmHg 82%
    21:00 +27°C° 0.1 mm 6 m/s 720 mmHg 82%
    22:00 +27°C° 0.1 mm 5 m/s 721 mmHg 82%
    23:00 +27°C° 0.1 mm 5 m/s 721 mmHg 82%

    Poimâine, 29 Martie, Vineri

    Timp Temperatura Precipitaţii Vânt Presiune Umiditate
    00:00 +26°C° 0.1 mm 5 m/s 720 mmHg 83%
    01:00 +26°C° 0.1 mm 5 m/s 720 mmHg 84%
    02:00 +26°C° 0.1 mm 5 m/s 720 mmHg 84%
    03:00 +26°C° 0.1 mm 5 m/s 719 mmHg 84%
    04:00 +26°C° 0.1 mm 5 m/s 719 mmHg 85%
    05:00 +26°C° 0 mm 5 m/s 719 mmHg 85%
    06:00 +26°C° 0 mm 5 m/s 719 mmHg 85%
    07:00 +26°C° 0 mm 5 m/s 719 mmHg 85%
    08:00 +27°C° 0 mm 5 m/s 720 mmHg 81%
    09:00 +28°C° 0 mm 5 m/s 720 mmHg 77%
    10:00 +29°C° 0 mm 5 m/s 720 mmHg 73%
    11:00 +29°C° 0.2 mm 5 m/s 720 mmHg 72%
    12:00 +29°C° 0.2 mm 5 m/s 720 mmHg 70%
    13:00 +30°C° 0.2 mm 5 m/s 719 mmHg 69%
    14:00 +29°C° 0.8 mm 5 m/s 719 mmHg 71%
    15:00 +29°C° 0.8 mm 5 m/s 719 mmHg 73%
    16:00 +28°C° 0.8 mm 5 m/s 718 mmHg 75%
    17:00 +28°C° 0.4 mm 5 m/s 719 mmHg 77%
    18:00 +27°C° 0.4 mm 4 m/s 719 mmHg 80%
    19:00 +26°C° 0.4 mm 4 m/s 719 mmHg 83%
    20:00 +26°C° 0.1 mm 4 m/s 720 mmHg 83%
    21:00 +26°C° 0.1 mm 4 m/s 720 mmHg 83%
    22:00 +26°C° 0.1 mm 5 m/s 720 mmHg 84%
    23:00 +26°C° 0 mm 4 m/s 720 mmHg 84%

    30 Martie, Sâmbătă

    Timp Temperatura Precipitaţii Vânt Presiune Umiditate
    00:00 +26°C° 0 mm 4 m/s 720 mmHg 84%
    01:00 +26°C° 0 mm 3 m/s 719 mmHg 84%
    02:00 +26°C° 0 mm 3 m/s 719 mmHg 83%
    03:00 +25°C° 0 mm 3 m/s 719 mmHg 83%
    04:00 +25°C° 0 mm 3 m/s 718 mmHg 83%
    05:00 +25°C° 0 mm 2 m/s 719 mmHg 82%
    06:00 +25°C° 0 mm 2 m/s 719 mmHg 81%
    07:00 +26°C° 0 mm 2 m/s 719 mmHg 81%
    08:00 +27°C° 0 mm 2 m/s 720 mmHg 75%
    09:00 +28°C° 0 mm 2 m/s 720 mmHg 69%
    10:00 +29°C° 0 mm 3 m/s 721 mmHg 64%
    11:00 +29°C° 0 mm 2 m/s 720 mmHg 62%
    12:00 +30°C° 0 mm 2 m/s 720 mmHg 60%
    13:00 +30°C° 0 mm 2 m/s 719 mmHg 58%
    14:00 +30°C° 0 mm 2 m/s 719 mmHg 60%
    15:00 +29°C° 0 mm 2 m/s 719 mmHg 63%
    16:00 +29°C° 0 mm 2 m/s 719 mmHg 66%
    17:00 +28°C° 0 mm 3 m/s 719 mmHg 69%
    18:00 +27°C° 0 mm 3 m/s 719 mmHg 72%
    19:00 +27°C° 0 mm 3 m/s 719 mmHg 75%
    20:00 +26°C° 0 mm 3 m/s 720 mmHg 75%
    21:00 +26°C° 0 mm 3 m/s 720 mmHg 75%
    22:00 +26°C° 0 mm 3 m/s 721 mmHg 75%
    23:00 +26°C° 0 mm 3 m/s 721 mmHg 76%

    31 Martie, Duminică

    Timp Temperatura Precipitaţii Vânt Presiune Umiditate
    00:00 +26°C° 0 mm 2 m/s 720 mmHg 77%
    01:00 +25°C° 0 mm 2 m/s 720 mmHg 77%
    02:00 +25°C° 0 mm 2 m/s 720 mmHg 78%
    03:00 +25°C° 0 mm 1 m/s 720 mmHg 79%
    04:00 +25°C° 0 mm 1 m/s 719 mmHg 80%
    05:00 +25°C° 0 mm 1 m/s 720 mmHg 80%
    06:00 +25°C° 0 mm 1 m/s 720 mmHg 80%
    07:00 +25°C° 0 mm 1 m/s 720 mmHg 80%
    08:00 +27°C° 0 mm 1 m/s 721 mmHg 74%
    09:00 +26°C° 0 mm 0 m/s 721 mmHg 67%
    10:00 +27°C° 0 mm 0 m/s 721 mmHg 60%
    11:00 +30°C° 0 mm 1 m/s 721 mmHg 59%
    12:00 +30°C° 0 mm 1 m/s 721 mmHg 58%
    13:00 +31°C° 0 mm 1 m/s 721 mmHg 56%
    14:00 +30°C° 0.1 mm 1 m/s 720 mmHg 60%
    15:00 +29°C° 0.1 mm 1 m/s 720 mmHg 64%
    16:00 +28°C° 0.1 mm 1 m/s 720 mmHg 67%
    17:00 +27°C° 0 mm 1 m/s 721 mmHg 69%
    18:00 +27°C° 0 mm 1 m/s 721 mmHg 72%
    19:00 +27°C° 0 mm 2 m/s 721 mmHg 74%
    20:00 +26°C° 0 mm 2 m/s 721 mmHg 75%
    21:00 +26°C° 0 mm 1 m/s 722 mmHg 76%
    22:00 +26°C° 0 mm 1 m/s 722 mmHg 77%
    23:00 +25°C° 0 mm 1 m/s 722 mmHg 78%

    1 Aprilie, Luni

    Timp Temperatura Precipitaţii Vânt Presiune Umiditate
    00:00 +25°C° 0 mm 1 m/s 721 mmHg 79%
    01:00 +25°C° 0 mm 1 m/s 721 mmHg 80%
    02:00 +25°C° 0 mm 1 m/s 721 mmHg 81%
    03:00 +25°C° 0 mm 1 m/s 721 mmHg 81%
    04:00 +25°C° 0 mm 1 m/s 720 mmHg 82%
    05:00 +25°C° 0 mm 1 m/s 721 mmHg 81%
    06:00 +25°C° 0 mm 1 m/s 721 mmHg 81%
    07:00 +25°C° 0 mm 1 m/s 721 mmHg 81%
    08:00 +26°C° 0 mm 2 m/s 722 mmHg 74%
    09:00 +27°C° 0 mm 2 m/s 722 mmHg 68%
    10:00 +28°C° 0 mm 2 m/s 722 mmHg 62%
    11:00 +29°C° 0 mm 2 m/s 722 mmHg 60%
    12:00 +30°C° 0 mm 2 m/s 722 mmHg 58%
    13:00 +30°C° 0 mm 2 m/s 722 mmHg 55%
    14:00 +30°C° 0 mm 2 m/s 721 mmHg 59%
    15:00 +29°C° 0 mm 2 m/s 721 mmHg 62%
    16:00 +28°C° 0 mm 2 m/s 721 mmHg 65%
    17:00 +27°C° 0 mm 2 m/s 721 mmHg 68%
    18:00 +27°C° 0 mm 2 m/s 722 mmHg 71%
    19:00 +26°C° 0 mm 2 m/s 722 mmHg 74%
    20:00 +26°C° 0 mm 2 m/s 722 mmHg 75%
    21:00 +26°C° 0 mm 2 m/s 723 mmHg 76%
    22:00 +26°C° 0 mm 2 m/s 723 mmHg 77%
    23:00 +26°C° 0 mm 2 m/s 723 mmHg 78%
    Arată mai mult